Overview Statistics Trail Chart Weather Telemetry Raw packets
 

This is the latest recevied weather packets stored in our database for station/object LA4M-10. If no packets are shown the sender has not sent any weather packets the latest 10 day(s).

<< 1 2 3 4 5 6 >>
Time Temp. Humidity Pressure Rain* Wind** Luminosity Snow
1788606081 19.44° C 86% 935.9 hPa - - - -
1788605181 18.89° C 94% 935.8 hPa - - - -
1788604281 17.78° C 100% 935.6 hPa - - - -
1788603381 16.67° C 100% 935.5 hPa - - - -
1788602481 15° C 100% 935.5 hPa - - - -
1788601580 13.89° C 100% 935.4 hPa - - - -
1788600680 15° C 100% 935.1 hPa - - - -
1788599780 14.44° C 100% 935.1 hPa - - - -
1788598879 14.44° C 100% 934.9 hPa - - - -
1788597979 14.44° C 100% 934.7 hPa - - - -
1788597079 14.44° C 100% 934.6 hPa - - - -
1788596179 13.89° C 100% 934.6 hPa - - - -
1788595279 13.33° C 100% 934.4 hPa - - - -
1788594379 13.33° C 100% 934.4 hPa - - - -
1788593479 13.33° C 100% 934.3 hPa - - - -
1788592579 12.22° C 100% 934.2 hPa - - - -
1788591679 11.11° C 100% 934.1 hPa - - - -
1788590779 10.56° C 100% 933.9 hPa - - - -
1788589878 11.67° C 100% 933.8 hPa - - - -
1788588978 11.11° C 100% 933.6 hPa - - - -
1788588078 12.22° C 100% 933.5 hPa - - - -
1788587178 11.67° C 100% 933.4 hPa - - - -
1788586278 11.11° C 100% 933.4 hPa - - - -
1788585378 10.56° C 100% 933.4 hPa - - - -
1788584478 10° C 100% 933.3 hPa - - - -

* Rain since midnight (hover to see other rain measurements)
** Current wind speed in m/s (hover to see current wind gust speed)